Lahr, Germany

4:33 AM CET on November 12, 2019 (GMT +0100)
Lahr

Weather History for EDTL - September, 2019

Change the Weather History Date:

Friday, September 13, 2019

  Actual Average (WUND) Record (WUND)
Temperature  
Mean Temperature 65 °F -  
Max Temperature 77 °F - - (-1)
Min Temperature 53 °F - - (-1)
Growing Degree Days 15 (Base 50)    
Moisture  
Dew Point 57 °F    
Average Humidity 67    
Maximum Humidity 95    
Minimum Humidity 46    
Precipitation  
Precipitation 0.00 in - - ()
Sea Level Pressure  
Sea Level Pressure 30.46 in    
Wind  
Wind Speed 5 mph ()    
Max Wind Speed 12 mph    
Max Gust Speed -    
Visibility 9.7 miles    
Events      
Averages and records for this station are not official NWS values.
T = Trace of Precipitation, MM = Missing Value Source: Averaged Metar Reports

Daily Weather History Graph

Daily Weather History Graph

Search for Another Location

Airport or City:

Astronomy

Sep. 13, 2019 Rise Set
Actual Time 7:02 AM CEST 7:46 PM CEST
Civil Twilight 6:30 AM CEST 8:17 PM CEST
Nautical Twilight 5:52 AM CEST 8:55 PM CEST
Astronomical Twilight 5:13 AM CEST 9:34 PM CEST
Moon 7:58 PM CEST (9/13) 5:53 AM CEST (9/13)
Length of Visible Light 13h 47m
Length of Day
12h 44m
Waxing Gibbous, 99% of the Moon is Illuminated
Sep 13
Waxing Gibbous
Sep 14
Full
Sep 22
Last Quarter
Sep 28
New
Oct 5
First Quarter

Hourly Weather History & Observations

Time (CEST) Temp. Dew Point Humidity Pressure Visibility Wind Dir Wind Speed Gust Speed Precip Events Conditions
12:00 AM 60 °F 54 °F 74% 30.46 in 31 mi WSW 4.5 mph - -  
3:00 AM 55 °F 53 °F 90% 30.47 in 18 mi WNW 2.2 mph - -  
4:00 AM 53 °F 52 °F 95% 30.48 in 9 mi ENE 2.2 mph - -  
7:20 AM 53.6 °F 51.8 °F 94% 30.48 in - SSE 4.6 mph - N/A   Clear
8:20 AM 57.2 °F 53.6 °F 88% 30.48 in - Variable 2.3 mph - N/A   Clear
8:50 AM 59.0 °F 55.4 °F 88% 30.48 in - North 2.3 mph - N/A   Clear
9:20 AM 60.8 °F 55.4 °F 82% 30.48 in - Variable 2.3 mph - N/A   Clear
9:50 AM 64.4 °F 57.2 °F 77% 30.48 in - Variable 3.5 mph - N/A   Clear
10:00 AM 65 °F 55 °F 62% 30.49 in 22 mi NNE 2.2 mph - -  
10:20 AM 66.2 °F 57.2 °F 73% 30.51 in - Variable 3.5 mph - N/A   Clear
12:20 PM 71.6 °F 60.8 °F 69% 30.48 in - NNE 8.1 mph - N/A   Clear
12:50 PM 71.6 °F 60.8 °F 69% 30.48 in - NNE 9.2 mph - N/A   Clear
1:20 PM 73.4 °F 60.8 °F 65% 30.48 in 6.2 mi NE 9.2 mph - N/A   Partly Cloudy
2:20 PM 75.2 °F 59.0 °F 57% 30.48 in 6.2 mi North 8.1 mph - N/A   Scattered Clouds
2:50 PM 75.2 °F 59.0 °F 57% 30.45 in - North 10.4 mph - N/A   Clear
3:00 PM 76 °F 59 °F 46% 30.44 in 9 mi North 8.9 mph - -  
3:20 PM 75.2 °F 59.0 °F 57% 30.45 in - NNE 9.2 mph - N/A   Clear
3:50 PM 77.0 °F 59.0 °F 54% 30.45 in - NNE 8.1 mph - N/A   Clear
4:20 PM 75.2 °F 57.2 °F 53% 30.45 in - North 8.1 mph - N/A   Clear
4:50 PM 75.2 °F 57.2 °F 53% 30.45 in - North 9.2 mph - N/A   Clear
5:20 PM 77.0 °F 55.4 °F 47% 30.42 in - NNE 10.4 mph - N/A   Clear
5:50 PM 75.2 °F 57.2 °F 53% 30.42 in - NNE 10.4 mph - N/A   Clear
6:20 PM 75.2 °F 57.2 °F 53% 30.42 in - NNE 11.5 mph - N/A   Clear
6:50 PM 75.2 °F 59.0 °F 57% 30.42 in - NNE 8.1 mph - N/A   Clear
7:20 PM 71.6 °F 59.0 °F 64% 30.42 in - NNE 8.1 mph - N/A   Clear
7:50 PM 69.8 °F 59.0 °F 68% 30.42 in - North 9.2 mph - N/A   Clear
10:00 PM 65 °F 59 °F 74% 30.45 in 34 mi North 4.5 mph - -